sat.trackr.live / text

‹ back to catalog

STARLINK-30509

NORAD 57977 · 2023-151P

PAYLOAD ACTIVE UNKNOWN

§ Identity

Operator
Country
US
Launch date
2023-09-30
Launch site
AFETR
Launch vehicle
Mass (kg)
RCS (m²)

Purposes: comms

External: N2YO · Heavens-Above · Gunter

§ Orbital elements

Epoch: 2026-09-20T05:09:27.025632Z

Period
94.27 min
Inclination
43.0034°
Eccentricity
0.0001471
Mean motion
15.27578760 rev/d
Perigee alt
482.0 km
Apogee alt
484.1 km
Semi-major
6,861.2 km
B*
4.7639e-5
RAAN
332.1005°
Arg perigee
264.4633°
Mean anomaly
95.6051°
Rev number
16,534

§ Raw data

STARLINK-305091 57977U 23151P   26263.21489613  .00001049  00000+0  47639-4 0  99962 57977  43.0034 332.1005 0001471 264.4633  95.6051 15.27578760165349

JSON: /api/v1/satellites/57977 · /tle

For live sub-satellite position, see the globe view (requires WebGL).

§ Visibility from observer

Set your observer location to see the next 7 days of passes ≥ 10°. The values pass through the URL so the page stays shareable.

No JS? Fill the form by hand. The geolocation button needs JavaScript.